Simultaneous Nadir Overpasses (SNOs) Predictions

Prediction of SNOs between AURA and NPP Satellite Orbit:

Table of predicted SNOs for the next 14.0 days since TLE Epoch: 2/8/2015
Index Date (AURA) Time (AURA) Lat,Lon (AURA) SZA (AURA ) Date (NPP) Time (NPP) Lat,Lon (NPP) SZA (NPP ) Distance(km) Time Diff (sec)
1 02/09/2015 23:35:32 -78.06,-104.82 70.81 02/09/2015 23:34:50 -78.06,-104.88 70.76 1.45 42
2 02/10/2015 00:24:43 78.70, 66.02 108.37 02/10/2015 00:25:18 78.70, 66.07 108.34 0.98 35
3 02/12/2015 15:51:55 -78.30, 12.20 71.97 02/12/2015 15:51:38 -78.30, 12.16 71.94 1.05 17
4 02/12/2015 16:41:07 78.88,-177.07 107.27 02/12/2015 16:42:07 78.88,-177.01 107.21 1.47 60
5 02/15/2015 07:19:04 77.90, -41.42 107.66 02/15/2015 07:17:56 77.90, -41.48 107.73 1.57 68
6 02/15/2015 08:08:17 -78.52, 129.23 73.15 02/15/2015 08:08:26 -78.52, 129.22 73.15 0.36 9
7 02/17/2015 23:35:24 78.17, 75.71 106.41 02/17/2015 23:34:43 78.16, 75.67 106.45 1.02 41
8 02/18/2015 00:24:38 -78.73,-113.73 74.35 02/18/2015 00:25:14 -78.74,-113.71 74.38 0.64 36
9 02/20/2015 15:51:42 78.42,-167.15 105.14 02/20/2015 15:51:29 78.42,-167.16 105.15 0.27 13




NCC Satellite Simultaneous Nadir Overpasses (SNOs) Prediction Service
